Regional Weather Roundup
Issued by NWS

Home | Current Version | Previous Version | Graphics & Text | Print | Product List | Glossary Off
Versions: 1 2 3 4 5 6 7 8 9 10 11 12 13 14 15 16 17 18 19 20 21 22 23 24 25 26 27 28 29 30 31 32 33 34 35 36 37 38 39 40 41 42 43 44 45 46 47 48 49 50

000
ASUS43 KMKX 270900
RWRWI

WISCONSIN REGIONAL WEATHER ROUNDUP
NATIONAL WEATHER SERVICE MILWAUKEE/SULLIVAN WI
400 AM CDT WED JUL 27 2016

NOTE: "FAIR" INDICATES FEW OR NO CLOUDS BELOW 12,000 FEET WITH NO
SIGNIFICANT WEATHER AND/OR OBSTRUCTIONS TO VISIBILITY.

WIZ001-002-006>008-014>016-023>028-271000-
NORTHWEST WISCONSIN

CITY           SKY/WX    TMP DP  RH WIND       PRES   REMARKS
SUPERIOR ARPT  CLOUDY    65  64  94 SW3       29.95R
ASHLAND        CLOUDY    69  67  93 W6        29.97R
HAYWARD        HVY RAIN  67  66  97 VRB3      29.99R FOG
SIREN          CLOUDY    70  63  78 CALM      29.98R
CUMBERLAND     CLOUDY    64  63  94 CALM      29.99S
RICE LAKE      CLOUDY    67  64  91 CALM      30.00S
CHETEK         CLOUDY    68  66  94 CALM      29.99S
LADYSMITH      CLOUDY    66  64  91 CALM      30.01S
EAU CLAIRE     NOT AVBL
MENOMONIE      CLOUDY    69  65  87 CALM      29.99R
NEW RICHMOND   CLOUDY    70  64  81 S5        29.98S
OSCEOLA        CLOUDY    71  63  76 S3        29.99S
$$

WIZ003>005-009-010-017-018-271000-
NORTH CENTRAL WISCONSIN

CITY           SKY/WX    TMP DP  RH WIND       PRES   REMARKS
MANITOWISH WTR CLOUDY    65  65 100 CALM      30.00F
ARBOR VITAE    MOCLDY    63  61  94 NW3       29.99F
WOODRUFF       MOCLDY    63  61  94 NW3       29.99F
RHINELANDER    PTCLDY    64  61  90 W7        30.00R
EAGLE RIVER    CLOUDY    62  62  99 CALM      29.96F
LAND O LAKES   CLOUDY    63  60  91 CALM      29.98F
PHILLIPS       MOCLDY    64  64 100 CALM      30.00R
TOMAHAWK       CLOUDY    61  59  95 CALM      30.01S
MEDFORD        CLOUDY    62  62 100 CALM      30.00S
MERRILL        CLOUDY    62  60  96 CALM      30.00S
$$

WIZ029-030-035-036-043>047-271000-
CENTRAL WISCONSIN

CITY           SKY/WX    TMP DP  RH WIND       PRES   REMARKS
WAUSAU         PTCLDY    67  64  90 CALM      29.97F
MOSINEE        CLEAR     68  66  94 CALM      30.00S
MARSHFIELD     PTCLDY    67  64  90 N5        29.99S
STEVENS POINT  CLEAR     70  66  87 CALM      29.99S
WAUPACA        CLEAR     72  70  94 CALM      29.98S
WAUTOMA        CLEAR     66  65  96 CALM      29.99S
WISC RAPIDS    CLEAR     68  64  87 CALM      30.00S
CAMP DOUGLAS   NOT AVBL
$$

WIZ011>013-019>022-031-037>040-048>050-271000-
NORTHEAST WISCONSIN

CITY           SKY/WX    TMP DP  RH WIND       PRES   REMARKS
ANTIGO         CLOUDY    63  60  91 CALM      30.00F
SHAWANO        CLEAR     73  67  83 W3        29.97F
OCONTO         PTCLDY    71  71 100 NW3       29.97R
STURGEON BAY   PTCLDY    74  69  85 N9        29.98R
GREEN BAY      CLEAR     69  69 100 CALM      29.97R
MANITOWOC      NOT AVBL
APPLETON       CLEAR     72  63  73 W7        29.96F
CLINTONVILLE   CLEAR     72  64  78 N3        29.97F
OSHKOSH        PTCLDY    72  66  81 CALM      29.97F
$$

WIZ032>034-041-042-053>061-271000-
SOUTHWEST WISCONSIN

CITY           SKY/WX    TMP DP  RH WIND       PRES   REMARKS
LA CROSSE      CLEAR     72  68  87 S7        29.99R
SPARTA         CLEAR     62  62  99 CALM      30.00S
VIROQUA        PTCLDY    65  65 100 CALM      30.02F
BOSCOBEL       FOG       66  66 100 CALM      30.01R VSB 1/4
PRAIRIE DU CHI CLEAR     66  64  92 CALM      30.00R
PLATTEVILLE    CLEAR     68  67  96 CALM      30.02S
$$

WIZ056-057-062-063-064-067-068-271000-
SOUTH CENTRAL WISCONSIN

CITY           SKY/WX    TMP DP  RH WIND       PRES   REMARKS
REEDSBURG      CLEAR     65  65 100 CALM      30.00S
BARABOO/DELLS  MOCLDY    65  62  93 S3        30.00S
LONE ROCK      PTCLDY    64  62  93 CALM      30.02R
MINERAL POINT  CLEAR     68  64  88 CALM      30.02S
MADISON        CLEAR     66  64  93 CALM      30.00S
MIDDLETON      CLEAR     65  65 100 CALM      30.02S
WATERTOWN      CLEAR     65  65 100 CALM      30.00S
MONROE         CLEAR     70  63  78 W7        30.01F
JANESVILLE     CLEAR     66  64  94 CALM      30.00F
$$

WIZ051-052-058>065-066-070>072-271000-
SOUTHEAST WISCONSIN

CITY           SKY/WX    TMP DP  RH WIND       PRES   REMARKS
MILWAUKEE      PTCLDY    74  65  73 SW5       29.99S
WAUKESHA       PTCLDY    68  61  77 CALM      30.02R
MILWAUKEE/TIMM CLEAR     68  61  77 SW5       30.01R
RACINE         CLEAR     71  63  75 W5        30.02R
BURLINGTON     CLEAR     62  61  97 CALM      30.01S
KENOSHA        CLEAR     66  63  90 NW3       30.01S
FOND DU LAC    CLEAR     67  65  93 CALM      29.98S
SHEBOYGAN      CLEAR     71  65  81 W6        29.98R
WEST BEND      CLEAR     64  63  94 CALM      30.00S
JUNEAU         CLEAR     64  64  97 SW3       30.01S
$$

LSZ147-162-271000-
LAKE SUPERIOR

STATION/POSITION TIME  TEMP    WIND        PRES    WAVE
                       AIR SEA DIR/SP/G            HT/PER
                 (UTC) (F)     (DEG/KT/KT) (MB)    (FT/S)
W MID LAKE BUOY  0750   65 61   40/  8/  8 1013.5F   0
DEVILS ISLAND    0800   68      70/  9/  9 1014.1R
PORT WING        0840   70     110/  2/  3 1014.6R
SAXON HARBOR     0800   71     200/  5/  7 1014.2R
$$

LMZ867-665-643>646-271000-
LAKE MICHIGAN

STATION/POSITION TIME  TEMP    WIND        PRES    WAVE
                       AIR SEA DIR/SP/G            HT/PER
                 (UTC) (F)     (DEG/KT/KT) (MB)    (FT/S)
CHAMBERS ISLAND  0840   72     280/  3/  8 1014.9R
S GREEN BAY BUOY 0800   73 74  250/  2/  2   N/A
N MID LAKE BUOY  0750   71 69  300/  4/  6 1012.9R   2/ 5
NORTHPORT PIER   0807   72     300/ 14/ 28 1014.9R
SISTER BAY       0721   74     270/  7/  7   N/A
ALGOMA LAKESHORE 0813          310/  8/ 12   N/A
KEWAUNEE LAKESHO 0800   76     280/  6/ 10 1013.8S
SHEBOYGAN LAKESH 0800   74     260/  6/  8 1014.7F
PORT WASHINGTON  0800   71     240/  2/  3 1015.6F
ATWATER BUOY     0800   65 54  180/  2/  4 1016.9F
MILWAUKEE LAKESH 0810   76     270/  6/  6   N/A
S MID LAKE BUOY  0750   75 76  190/  4/  6 1014.8S   0
KENOSHA   LAKESH 0800   75     260/  6/  7 1015.6R
$$

TC  - TEMPERATURE IN CELSIUS
VSB - VISIBILITY IN STATUTE MILES
WCI - WIND CHILL INDEX
HX  - HEAT INDEX




USA.gov is the U.S. government's official web portal to all federal, state and local government web resources and services.